Location: Pradons
(44.4746°N, 4.3578°E)
Time: 21:11:42
(UTC+00:00)

NOSS 3-4 (A) - Pass Details

Date: 09 April 2020
Orbit: 892 x 1320 km, 63.4° (Epoch: 01 June)

Event Time Altitude Azimuth Distance (km) Brightness Sun altitude
Rises 19:25:33 0° 321° (NW) 3,841 7.8 -11.9°
Reaches altitude 10° 19:28:05 10° 320° (NW) 2,942 7.1 -12.3°
Maximum altitude 19:35:07 77° 236° (WSW) 1,207 4.0 -13.4°
Enters shadow 19:42:34 11° 152° (SSE) 3,115 5.6 -14.6°
